Tracking 19920 objects as of 15-Oct-2019
HD Live streaming from Space Station
objects crossing your sky now

IRIDIUM 33 DEB

Track IRIDIUM 33 DEB now!
10-day predictions


NORAD ID: 33874
Int'l Code: 1997-051AT
Perigee: 735.7 km
Apogee: 843.5 km
Inclination: 86.3 °
Period: 100.5 minutes
Semi major axis: 7160 km
RCS: 0.1107 m2 (medium)
Launch date: September 14, 1997
Source: United States (US)
Launch site: TYURATAM MISSILE AND SPACE COMPLEX (TTMTR)

Note: This is SATELLITE DEBRIS
aabbcc
Your satellite tracking list
Your tracking list is empty




NASA's NSSDC Master Catalog

Two Line Element Set (TLE):
1 33874U 97051AT  19287.92708698 +.00001136 +00000-0 +39745-3 0  9995
2 33874 086.2863 274.1831 0075209 193.2797 226.6566 14.32777198554317
Source of the keplerian elements: AFSPC